www.pogodaiklimat.ru

Погода и климат >> Архив погоды >> Россия >> Московская область >> Коломна


АРХИВ ПОГОДЫ в Коломне

Время (UTC), дата Ветер
(напр.,м/с)
 
Видим.   Явления Облачность Т
(С)
Тd
(С)
f
(%)
Тe
(С)
Тes
(С)
Комфортность P
(гПа)
Po
(гПа)
Тmin
(С)
Tmax
(С)
R
(мм)
R24
(мм)
S
(см)
21 12.05 штиль 0 10 км {ливн. осадки} 10/10 600 м
[Sc diur, vesp]
+14.9 +12.6 86 +15 +15 тепло 1023.7 1010.0
00 13.05 штиль 0 10 км слаб. ливневой дождь 10/10 600 м
[Cb cap]
+13.7 +12.9 95 +13 +13 тепло 1023.5 1009.8
03 13.05 штиль 0 10 км слаб. ливневой дождь 10/10 600 м
[Cb cap]
+13.7 +12.7 94 +13 +13 тепло 1023.1 1009.4 +13.6 3
06 13.05 С 1 10 км {ливн. осадки} 9/8 600 м
[Cb cap Ci fib]
+16.3 +12.7 79 +17 +19 тепло 1022.2 1008.6 +13.6 3
09 13.05 С 1 10 км 8/6 600 м
[Cb cap Ci fib]
+20.0 +13.1 64 +23 +29 комфорт 1021.0 1007.6
12 13.05 С 2 10 км 9/5 600 м
[Cb cap Ac trans Ci fib]
+22.4 +13.2 56 +25 +29 комфорт 1020.3 1007.0
15 13.05 С 1 10 км 9/5 600 м
[Sc diur, vesp Ci fib]
+20.5 +13.6 65 +24 +25 комфорт 1018.9 1005.6 0.0
18 13.05 С 1 10 км 9/6 600 м
[Sc Ac trans]
+18.6 +12.9 69 +20 +20 тепло 1019.3 1005.8 +22.7
21 13.05 штиль 0 10 км 10/10 600 м
[Sc]
+17.5 +12.1 71 +18 +18 тепло 1018.8 1005.3
00 14.05 С 1 10 км 9/9 600 м
[Sc]
+15.3 +11.9 80 +16 +16 тепло 1017.4 1003.8
03 14.05 штиль 0 10 км в посл. час ливневой дождь 10/10 600 м
[Cb cap]
+13.8 +12.7 93 +13 +13 тепло 1018.5 1004.8 +13.8 0.8
06 14.05 штиль 0 10 км {ливн. осадки} 9/6 600 м
[Cb cap Ac trans]
+16.6 +13.5 82 +16 +19 тепло 1017.8 1004.3 +13.8 0.8
09 14.05 СЗ 1 10 км 9/6 600 м
[Cb cap Ac trans]
+17.8 +13.7 77 +19 +23 тепло 1017.4 1004.0
12 14.05 СЗ 1 10 км 9/5 600 м
[Sc diur, vesp Ac trans Ci fib]
+18.9 +14.3 75 +21 +25 комфорт 1017.4 1004.0
15 14.05 С 1 10 км 8/0
[Ac trans Ci fib]
+19.9 +13.9 68 +23 +25 комфорт 1016.5 1003.1
18 14.05 штиль 0 10 км 9/0
[Ci fib]
+16.7 +14.6 87 +17 +17 тепло 1017.1 1003.6 +19.9
21 14.05 штиль 0 10 км 9/0
[Ci fib]
+15.1 +13.7 91 +15 +15 тепло 1016.8 1003.2
00 15.05 штиль 0 10 км 9/0
[Ci fib]
+13.9 +13.1 95 +13 +13 тепло 1016.9 1003.3
03 15.05 С 1 4000 м дымка 10/10 600 м
[Sc]
+14.7 +13.6 93 +15 +15 тепло 1017.2 1003.6 +13.8
06 15.05 штиль 0 10 км 9/5 600 м
[Sc Ac trans]
+17.9 +13.5 75 +18 +21 тепло 1017.2 1003.8 +13.8
09 15.05 штиль 0 10 км 9/5 600 м
[Sc Ac trans]
+20.9 +13.6 63 +23 +28 комфорт 1017.0 1003.7
12 15.05 штиль 0 10 км слаб. ливневой дождь 10/10 600 м
[Cb cap]
+19.5 +16.3 82 +21 +21 комфорт 1017.2 1003.8
15 15.05 штиль 0 10 км {ливн. осадки} 9/6 600 м
[Cb cap Ac trans]
+19.7 +15.0 74 +21 +22 комфорт 1016.4 1003.1 0.5
18 15.05 штиль 0 10 км слаб. ливневой дождь 10/10 600 м
[Cb cap]
+16.2 +15.4 95 +16 +16 тепло 1017.4 1003.9 +21.4 4
21 15.05 С 2 2000 м ливневой дождь 10/10 600 м
[Cb cap]
+13.7 +13.0 96 +13 +13 тепло 1018.0 1004.4
00 16.05 С 1 4000 м слаб. ливневой дождь 9/9 600 м
[Cb cap]
+12.0 +10.2 89 +12 +12 тепло 1019.2 1005.5
03 16.05 С 1 10 км {ливн. осадки} 10/10 600 м
[Cb cap]
+10.8 +7.4 80 +11 +11 по сезону 1020.2 1006.4 +10.8 36
06 16.05 С 1 10 км {ливн. осадки} 6/6 600 м
[Sc diur, vesp]
+13.2 +7.5 68 +13 +17 по сезону 1021.1 1007.4 +10.6 32
09 16.05 С 1 10 км 6/6 1000 м
[Cu hum]
+17.4 +9.5 60 +18 +25 тепло 1021.6 1008.1
12 16.05 С 1 10 км 5/3 1000 м
[Cu hum Ci fib]
+19.4 +5.9 41 +21 +30 комфорт 1021.8 1008.3
15 16.05 С 1 10 км 5/3 600 м
[Sc diur, vesp Ci fib]
+18.4 +1.8 33 +20 +22 тепло 1022.0 1008.5
18 16.05 штиль 0 10 км 8/4 600 м
[Sc Ci fib]
+13.6 +4.8 55 +13 +13 по сезону 1023.4 1009.7 +19.5
21 16.05 штиль 0 10 км 5/0
[Ci fib]
+9.5 +2.5 62 +9 +9 по сезону 1024.9 1010.9
00 17.05 штиль 0 10 км 3/0
[Ci fib]
+6.3 +2.3 76 +6 +6 по сезону 1025.6 1011.4
03 17.05 штиль 0 10 км ясно +7.4 +2.2 70 +7 +8 по сезону 1026.6 1012.5 +4.5
06 17.05 СВ 1 10 км 3/0
[Ci fib]
+13.9 -0.1 38 +15 +24 тепло 1026.1 1012.3 +4.5
09 17.05 штиль 0 10 км ясно +16.0 -1.5 30 +16 +36 опасность
простуды
1025.1 1011.4
12 17.05 штиль 0 10 км ясно +17.7 -1.6 27 +18 +33 опасность
простуды
1023.4 1009.8
15 17.05 СЗ 1 10 км 3/0
[Ci fib]
+18.3 -0.9 27 +19 +22 тепло 1021.9 1008.4
18 17.05 штиль 0 10 км 4/0
[Ci fib]
+12.0 +4.6 61 +12 +12 по сезону 1021.4 1007.6 +18.4
21 17.05 штиль 0 10 км 4/0
[Ci fib]
+8.0 +4.4 78 +7 +7 прохладно 1021.3 1007.3
00 18.05 штиль 0 10 км 4/0
[Ci fib]
+5.8 +3.1 83 +5 +5 по сезону 1021.0 1006.9
03 18.05 штиль 0 10 км 4/0
[Ci fib]
+10.8 +6.0 72 +10 +12 по сезону 1020.7 1006.8 +5.6
06 18.05 штиль 0 10 км ясно +18.3 +6.3 45 +18 +30 опасность
простуды
1019.3 1005.8 +5.6
09 18.05 С 1 10 км ясно +19.9 +3.0 33 +21 +39 комфорт 1018.6 1005.2
12 18.05 СЗ 1 10 км ясно +21.3 +3.4 31 +21 +34 комфорт 1017.1 1003.8
15 18.05 штиль 0 10 км ясно +20.5 +1.9 29 +20 +24 тепло 1015.9 1002.5
18 18.05 штиль 0 10 км ясно +13.8 +2.1 45 +14 +14 по сезону 1016.9 1003.2 +21.4
21 18.05 штиль 0 10 км ясно +10.2 +4.1 66 +10 +10 по сезону 1016.9 1003.1
00 19.05 штиль 0 10 км ясно +7.0 +4.3 83 +6 +6 по сезону 1016.6 1002.6
03 19.05 штиль 0 10 км ясно +11.5 +4.5 62 +11 +13 по сезону 1017.8 1004.0 +6.5
06 19.05 С 1 10 км ясно +15.9 +3.8 44 +17 +27 тепло 1017.8 1004.2 +6.5
09 19.05 СЗ 2 10 км ясно +18.6 +2.4 34 +19 +34 опасность
простуды
1017.3 1003.8
12 19.05 СЗ 2 10 км 3/3 1000 м
[Cu med, cong]
+20.8 +2.2 29 +22 +30 комфорт 1016.8 1003.5
15 19.05 С 3 10 км ясно +19.7 +0.4 27 +20 +22 тепло 1017.3 1003.9
18 19.05 штиль 0 10 км 5/0
[Ci fib]
+12.5 +0.9 45 +12 +12 по сезону 1018.8 1005.0 +20.9

 

Местоположение метеостанции Коломна (Московская область, Россия): широта 55.13 долгота 38.73 высота над уровнем моря 114 м.

В архиве по умолчанию представлена погода в Коломне за последнюю неделю. Архивные данные за месяц целиком и за предыдущие месяцы, начиная с января 2011 года, Вы можете получить, выбрав интересующий диапазон дат из раскрывающегося списка и нажав кнопку "Ввод!".


*Определитесь, кто Вы:
робот инопланетянин человек

Внимание! Время в таблицах - всемирное. Для получения местного времени необходимо прибавить поправку, которая равна 3 ч.

Смотрите также архив погоды в соседних городах и на ближайших метеорологических станциях:

Погода в Воскресенске (Московская область, Россия) (20 км)
Погода в Луховицах (Московская область, Россия) (26 км)
Погода в Егорьевске (Московская область, Россия) (33 км)
Погода в Зарайске (Московская область, Россия) (41 км)
Погода в Михнево (Московская область, Россия) (49 км)
Погода в Кашире (Московская область, Россия) (50 км)
Погода в Домодедово (Московская область, Россия) (61 км)
Погода в Мелихово (Московская область, Россия) (69 км)
Погода в Павловском Посаде (Московская область, Россия) (71 км)
Погода в Серебряных Прудах (Московская область, Россия) (73 км)

Пояснения к столбцам:

Ветер - указаны скорость ветра в м/с - средняя за 10 мин, порывы в срок и между сроками (в фигурных скобках) и направление, откуда дует ветер: С - северный, СВ - северо-восточный, В - восточный, ЮВ - юго-восточный, Ю - южный, ЮЗ - юго-западный, З - западный, СЗ - северо-западный.
Видимость - горизонтальная дальность видимости в метрах или километрах. При видимости от 1 до 10 км при отсутствии осадков обычно наблюдается дымка, при ухудшении видимости до 1 км и менее - туман. В сухую погоду видимость может ухудшаться дымом, пылью или мглою.
Явления - указаны атмосферные явления, наблюдавшиеся в срок или в последний час перед сроком; фигурными скобками обозначены явления, наблюдавшиеся между сроками (за 1-3 часа до срока); квадратными скобками обозначены град или гололедные отложения с указанием их диаметра в мм.
Облачность - указаны через наклонную черту общая и нижняя облачность в баллах и высота нижней границы облаков в метрах; квадратными скобками обозначены формы облаков: Ci - перистые, Cs - перисто-слоистые, Cc - перисто-кучевые, Ac - высококучевые, As - высокослоистые, Sc - слоисто-кучевые, Ns - слоисто-дождевые, Cu - кучевые, Cb - кучево-дождевые. Подробнее классификацию облаков см. в Атласе облаков (PDF).
T - Температура воздуха - температура, измеренная на высоте 2 м над землей.
Td - Температура точки росы - температура, при понижении до которой содержащийся в воздухе водяной пар достигнет насыщения.
f - Относительная влажность воздуха - влажноcть воздуха, измеренная на высоте 2 м над землей.
Te - Эффективная температура - температура, которую ощущает одетый по сезону человек в тени. Характеристика душности погоды. При расчете учитывается влияние влажности воздуха и скорости ветра на теплоощущения человека.
Tes - Эффективная температура на солнце - температура, которую ощущает человек, с поправкой на солнечный нагрев. Характеристика знойности погоды. Зависит от высоты солнца над горизонтом, облачности и скорости ветра. Ночью, в пасмурную погоду, а также при ветре 12 м/с и более поправка равна нулю.
P - Атмосферное давление - приведенное к уровню моря атмосферное давление.
Po - Атмосферное давление - измеренное на уровне метеостанции атмосферное давление.
Tmin - Минимальная температура - минимум температуры воздуха на высоте 2 м над землей.
Tmax - Максимальная температура - максимум температуры воздуха на высоте 2 м над землей.
R - Количество осадков - Количество выпавших осадков за период времени, мм. При наведении курсора мыши на число - период времени, за который выпало указанное количество осадков.
R24 - Количество осадков - Количество выпавших осадков за 24 часа, мм.
S - Снежный покров - Высота снежного покрова, см. При наведении курсора мыши на число - состояние снежного покрова и степень покрытия местности в баллах.